الكل
K. D. Matanzima Airport (Umtata) UTT حالة الطقس
|
Umtata (UTT / FAUT)
سماء صافية
رياح خفيفة |
|
13 °C |
توقع منطقة محطة المطارUTT
| Date | Time (SAST) | Flight Rules | Wind Dir. | Speed | Type | Height AGL (ft) | Visibility | Remarks | ||||||
|---|---|---|---|---|---|---|---|---|---|---|---|---|---|---|
| 06-سبت | 19:00 | LIFR | 100° | 9 kt | Broken | 300 | 3500 meters. | Rain, Mist. | ||||||
| 06-سبت | 18:00 | LIFR | 100° | 9 kt | Broken | 300 | 3500 meters. | Rain, Mist. | ||||||
| 06-سبت | 17:00 | LIFR | 100° | 9 kt | Broken | 300 | 3500 meters. | Rain, Mist. | ||||||
| 06-سبت | 16:00 | LIFR | 100° | 9 kt | Broken | 300 | 3500 meters. | Rain, Mist. | ||||||
محفوظات أحدث تقرير روتيني عن حالة الطقس من أجل الطيران (الميتار )UTT
| Date | Time (SAST) | Flight Rules | Wind Dir. | Speed | Type | Height AGL (ft) | Visibility | Temp (°C) | Temp (°F) | Dew Point (°C) | Dew Point (°F) | Rel. Humid. | Pressure | Density Altitude | Remarks |
|---|---|---|---|---|---|---|---|---|---|---|---|---|---|---|---|
| 06-سبت | 16:00 | n/a | 120° | 8 kt | Missing | 13° | 55° | 11° | 51° | 88% | 1028 mb | 2,198 ft | |||
| 06-سبت | 15:00 | n/a | 130° | 11 kt | Missing | 13° | 55° | 11° | 51° | 88% | 1028 mb | 2,198 ft | |||
| 06-سبت | 14:00 | n/a | 150° | 8 kt | Missing | 13° | 55° | 12° | 53° | 94% | 1028 mb | 2,198 ft | |||
| 06-سبت | 13:00 | n/a | 130° | 4 kt | Missing | 14° | 57° | 13° | 55° | 94% | 1028 mb | 2,318 ft | |||
| 06-سبت | 12:00 | n/a | 160° | 5 kt | Missing | 13° | 55° | 12° | 53° | 94% | 1028 mb | 2,198 ft | |||
| 06-سبت | 11:00 | n/a | 120° | 4 kt | Missing | 13° | 55° | 12° | 53° | 94% | 1029 mb | 2,169 ft | |||
| 06-سبت | 10:00 | n/a | 150° | 4 kt | Missing | 13° | 55° | 13° | 55° | 100% | 1029 mb | 2,169 ft | |||
| 06-سبت | 09:00 | n/a | 140° | 4 kt | Missing | 13° | 55° | 12° | 53° | 94% | 1029 mb | 2,169 ft | |||
| 06-سبت | 08:00 | n/a | 170° | 5 kt | Missing | 13° | 55° | 11° | 51° | 88% | 1028 mb | 2,198 ft | |||
| 06-سبت | 07:00 | n/a | Calm | Missing | 12° | 53° | 11° | 51° | 94% | 1027 mb | 2,108 ft | ||||
| 06-سبت | 06:00 | n/a | 200° | 3 kt | Missing | 12° | 53° | 11° | 51° | 94% | 1027 mb | 2,108 ft | |||
| 06-سبت | 05:00 | n/a | 190° | 4 kt | Missing | 12° | 53° | 11° | 51° | 94% | 1026 mb | 2,137 ft | |||
| 06-سبت | 04:00 | n/a | 200° | 5 kt | Missing | 12° | 53° | 11° | 51° | 94% | 1026 mb | 2,137 ft | |||
| 06-سبت | 03:00 | n/a | 160° | 5 kt | Missing | 12° | 53° | 11° | 51° | 94% | 1026 mb | 2,137 ft | |||
| 06-سبت | 02:00 | n/a | 160° | 4 kt | Missing | 13° | 55° | 11° | 51° | 88% | 1025 mb | 2,287 ft | |||
| 06-سبت | 01:00 | n/a | 170° | 3 kt | Missing | 13° | 55° | 12° | 53° | 94% | 1025 mb | 2,287 ft | |||
| 06-سبت | 00:00 | n/a | 200° | 1 kt | Missing | 13° | 55° | 11° | 51° | 88% | 1026 mb | 2,257 ft | |||
| 05-سبت | 23:00 | n/a | 220° | 3 kt | Missing | 13° | 55° | 11° | 51° | 88% | 1026 mb | 2,257 ft | |||
| 05-سبت | 22:00 | n/a | 190° | 3 kt | Missing | 13° | 55° | 11° | 51° | 88% | 1026 mb | 2,257 ft | |||
| 05-سبت | 21:00 | n/a | 200° | 3 kt | Missing | 13° | 55° | 11° | 51° | 88% | 1026 mb | 2,257 ft | |||
| 05-سبت | 20:00 | n/a | 150° | 4 kt | Missing | 13° | 55° | 11° | 51° | 88% | 1026 mb | 2,257 ft | |||
| 05-سبت | 19:00 | n/a | 160° | 5 kt | Missing | 13° | 55° | 11° | 51° | 88% | 1025 mb | 2,287 ft | |||
| 05-سبت | 18:00 | n/a | 160° | 7 kt | Missing | 14° | 57° | 11° | 51° | 82% | 1025 mb | 2,407 ft | |||
| 05-سبت | 17:00 | n/a | 170° | 6 kt | Missing | 15° | 59° | 11° | 51° | 77% | 1024 mb | 2,556 ft |
تسجيل الدخول
| مُتصفحك غير مُدعَّم. قم بترقية متصفحك |
